Regional Weather Roundup
Issued by NWS

Home | Current Version | Previous Version | Graphics & Text | Print | Product List | Glossary Off
Versions: 1 2 3 4 5 6 7 8 9 10 11 12 13 14 15 16 17 18 19 20 21 22 23 24 25 26 27 28 29 30 31 32 33 34 35 36 37 38 39 40 41 42 43 44 45 46 47 48 49 50

000
ASUS43 KMKX 262211
RWRWI

WISCONSIN REGIONAL WEATHER ROUNDUP
NATIONAL WEATHER SERVICE MILWAUKEE/SULLIVAN WI
500 PM CDT SUN MAR 26 2017

NOTE: "FAIR" INDICATES FEW OR NO CLOUDS BELOW 12,000 FEET WITH NO
SIGNIFICANT WEATHER AND/OR OBSTRUCTIONS TO VISIBILITY.

WIZ001-002-006>008-014>016-023>028-262300-
NORTHWEST WISCONSIN

CITY           SKY/WX    TMP DP  RH WIND       PRES   REMARKS
SUPERIOR ARPT  CLOUDY    34  33  94 NE5       29.96R WCI  30
ASHLAND        CLOUDY    35  33  92 NE7       29.93S WCI  29
HAYWARD        CLOUDY    41  35  79 N9        29.89S
SIREN          CLOUDY    40  36  84 CALM      29.91S
CUMBERLAND     CLOUDY    39  37  93 N5        29.88S FOG
RICE LAKE      CLOUDY    42  38  86 CALM      29.90R
CHETEK         CLOUDY    42  38  85 NW3       29.89R
LADYSMITH      CLOUDY    44  38  81 NW7       29.89R
EAU CLAIRE     CLOUDY    42  38  85 NW5       29.88R
MENOMONIE      CLOUDY    44  38  81 NW5       29.89R
NEW RICHMOND   CLOUDY    42  38  87 N6        29.90S
OSCEOLA        CLOUDY    42  42  99 N7        29.94R
$$

WIZ003>005-009-010-017-018-262300-
NORTH CENTRAL WISCONSIN

CITY           SKY/WX    TMP DP  RH WIND       PRES   REMARKS
MANITOWISH WTR CLOUDY    37  37 100 N5        29.85S WCI  33
ARBOR VITAE    DRIZZLE   42  39  90 NW3       29.84S
WOODRUFF       DRIZZLE   42  39  90 NW3       29.84S
RHINELANDER    LGT RAIN  39  38  96 CALM      29.85R FOG
EAGLE RIVER    CLOUDY    38  37  98 CALM      29.84S
LAND O LAKES   CLOUDY    39  37  94 N6        29.87R WCI  35
PHILLIPS       CLOUDY    40  38  90 N5        29.85S
TOMAHAWK       DRIZZLE   38  37  93 CALM      29.86R
MEDFORD        DRIZZLE   39  37  94 CALM      29.85R
MERRILL        RAIN      39  39 100 CALM      29.86R
$$

WIZ029-030-035-036-043>047-262300-
CENTRAL WISCONSIN

CITY           SKY/WX    TMP DP  RH WIND       PRES   REMARKS
WAUSAU         LGT RAIN  39  38  96 E3        29.84S
MOSINEE        RAIN      37  37 100 CALM      29.86S
MARSHFIELD     LGT RAIN  40  37  89 CALM      29.84R FOG
STEVENS POINT  DRIZZLE   37  37 100 NE5       29.86S WCI  33
WAUPACA        DRIZZLE   41  40  95 CALM      29.86S
WAUTOMA        LGT RAIN  40  38  93 N5        29.85F
WISC RAPIDS    LGT RAIN  40  39  97 NE5       29.87S FOG
CAMP DOUGLAS   CLOUDY    40  39  99 N3        29.86R
$$

WIZ011>013-019>022-031-037>040-048>050-262300-
NORTHEAST WISCONSIN

CITY           SKY/WX    TMP DP  RH WIND       PRES   REMARKS
ANTIGO         DRIZZLE   36  36 100 CALM      29.85S
SHAWANO        DRIZZLE   39  38  93 N3        29.86F
OCONTO         CLOUDY    37  36  97 N6        29.86S WCI  32
STURGEON BAY   MIX PCPN  37  36  96 NW6       29.86S FOG     WCI  32
GREEN BAY      CLOUDY    38  38 100 NE9       29.85F WCI  31
MANITOWOC      LGT RAIN  40  39  97 NE5       29.84F FOG
APPLETON       LGT RAIN  39  39 100 NE7       29.83F WCI  34
CLINTONVILLE   LGT RAIN  37  36  93 NE5       29.86S WCI  34
OSHKOSH        LGT RAIN  41  39  93 N7        29.83F
$$

WIZ032>034-041-042-053>061-262300-
SOUTHWEST WISCONSIN

CITY           SKY/WX    TMP DP  RH WIND       PRES   REMARKS
LA CROSSE      CLOUDY    42  39  89 NW5       29.87S FOG
SPARTA         CLOUDY    41  39  94 N3        29.88R
VIROQUA        CLOUDY    41  41 100 N3        29.85S
BOSCOBEL       CLOUDY    46  43  89 CALM      29.86R FOG
PRAIRIE DU CHI CLOUDY    44  43  97 CALM      29.85S
PLATTEVILLE    CLOUDY    46  46 100 NW8       29.85R
$$

WIZ056-057-062-063-064-067-068-262300-
SOUTH CENTRAL WISCONSIN

CITY           SKY/WX    TMP DP  RH WIND       PRES   REMARKS
REEDSBURG      LGT RAIN  41  41 100 CALM      29.85R
BARABOO/DELLS  LGT RAIN  40  38  94 N3        29.85R
LONE ROCK      CLOUDY    44  41  89 N5        29.85S FOG
MINERAL POINT  FOG       45  45 100 N6        29.83R VSB 3/4
MADISON        CLOUDY    45  43  93 N8        29.82S
MIDDLETON      CLOUDY    45  45 100 N6        29.83S
WATERTOWN      CLOUDY    47  47 100 N3        29.81F
MONROE         CLOUDY    50  50 100 NE3       29.81S
JANESVILLE     CLOUDY    52  52 100 N3        29.81R FOG
$$

WIZ051-052-058>065-066-070>072-262300-
SOUTHEAST WISCONSIN

CITY           SKY/WX    TMP DP  RH WIND       PRES   REMARKS
MILWAUKEE      CLOUDY    43  40  89 NE6       29.82S FOG
WAUKESHA       CLOUDY    43  43 100 NE3       29.83R
MILWAUKEE/TIMM CLOUDY    43  39  87 CALM      29.83S
RACINE         CLOUDY    45  42  89 N3        29.83S FOG
KENOSHA        CLOUDY    52  50  93 E3        29.81R FOG
FOND DU LAC    LGT RAIN  42  39  89 N8        29.83S
SHEBOYGAN      LGT RAIN  41  39  93 NE8       29.83S FOG
WEST BEND      DRIZZLE   43  43 100 CALM      29.82S
JUNEAU         RAIN      44  43  97 CALM      29.84R
$$

LSZ147-162-262300-
LAKE SUPERIOR

STATION/POSITION TIME  TEMP    WIND        PRES    WAVE
                       AIR SEA DIR/SP/G            HT/PER
                 (UTC) (F)     (DEG/KT/KT) (MB)    (FT/S)
DEVILS ISLAND    2200   34      40/  8/  9 1014.7F
PORT WING        2130   34      40/ 11/ 12 1013.9F
SAXON HARBOR     2140   33     310/  5/  5 1013.2S
$$

LMZ867-665-643>646-262300-
LAKE MICHIGAN

STATION/POSITION TIME  TEMP    WIND        PRES    WAVE
                       AIR SEA DIR/SP/G            HT/PER
                 (UTC) (F)     (DEG/KT/KT) (MB)    (FT/S)
CHAMBERS ISLAND  2140   33      10/  8/ 11 1011.2F
NORTHPORT PIER   2140   35      20/  4/  6 1011.5F
SISTER BAY       2136   37      30/  5/  8   N/A
KEWAUNEE LAKESHO 2148   37      20/  6/ 10 1010.4F
SHEBOYGAN LAKESH 2200   37      10/ 10/ 11 1010.4F
PORT WASHINGTON  2140   42      40/  4/  7 1010.8F
MILWAUKEE LAKESH 2150   39      30/  7/  8   N/A
KENOSHA   LAKESH 2200   39      20/  4/  6 1009.8
$$

TC  - TEMPERATURE IN CELSIUS
VSB - VISIBILITY IN STATUTE MILES
WCI - WIND CHILL INDEX
HX  - HEAT INDEX





USA.gov is the U.S. government's official web portal to all federal, state and local government web resources and services.